When you browse on this site, cookies collect data to enhance your experience and personalize the content and advertising you see.
Visit our Privacy Policy to learn more. By continuing to use the site, you agree to this use of cookies and data.
  • In Czech Republic
  • List of Countries
  • For 7 days
  • Water Temperature
  • Weather Map
  • Weather Widgets
  • user-avatar
    Login

    Hourly Weather Joinville-le-Pont

    Today, 4 June, Thursday

    Time Temperature Precipitation Wind Pressure Humidity
    00:00 +16°C° 0.4 mm 3 mps 744 mmHg 79%
    01:00 +14°C° 0 mm 3 mps 744 mmHg 81%
    02:00 +13°C° 0 mm 3 mps 743 mmHg 82%
    03:00 +13°C° 0 mm 3 mps 743 mmHg 84%
    04:00 +13°C° 0.1 mm 3 mps 743 mmHg 84%
    05:00 +13°C° 0.1 mm 4 mps 743 mmHg 84%
    06:00 +13°C° 0.1 mm 4 mps 743 mmHg 84%
    07:00 +13°C° 0.4 mm 4 mps 743 mmHg 80%
    08:00 +14°C° 0.4 mm 3 mps 743 mmHg 77%
    09:00 +16°C° 0.4 mm 3 mps 744 mmHg 74%
    10:00 +16°C° 0.3 mm 3 mps 744 mmHg 73%
    11:00 +16°C° 0.3 mm 3 mps 744 mmHg 73%
    12:00 +16°C° 0.3 mm 3 mps 744 mmHg 72%
    13:00 +15°C° 0.2 mm 4 mps 744 mmHg 71%
    14:00 +15°C° 0.2 mm 4 mps 744 mmHg 71%
    15:00 +15°C° 0.2 mm 4 mps 744 mmHg 70%
    16:00 +15°C° 0.2 mm 4 mps 744 mmHg 71%
    17:00 +14°C° 0.2 mm 4 mps 744 mmHg 72%
    18:00 +14°C° 0.2 mm 4 mps 744 mmHg 73%
    19:00 +13°C° 0.1 mm 4 mps 745 mmHg 75%
    20:00 +12°C° 0.1 mm 3 mps 745 mmHg 77%
    21:00 +11°C° 0.1 mm 3 mps 746 mmHg 79%
    22:00 +11°C° 0 mm 3 mps 746 mmHg 79%
    23:00 +10°C° 0 mm 3 mps 746 mmHg 80%

    Tomorrow, 5 June, Friday

    Time Temperature Precipitation Wind Pressure Humidity
    00:00 +10°C° 0 mm 3 mps 746 mmHg 80%
    01:00 +10°C° 0 mm 3 mps 745 mmHg 81%
    02:00 +9°C° 0 mm 3 mps 745 mmHg 82%
    03:00 +9°C° 0 mm 3 mps 745 mmHg 83%
    04:00 +8°C° 0.1 mm 4 mps 745 mmHg 84%
    05:00 +9°C° 0.1 mm 5 mps 744 mmHg 85%
    06:00 +9°C° 0.1 mm 5 mps 744 mmHg 86%
    07:00 +10°C° 0.5 mm 6 mps 744 mmHg 87%
    08:00 +10°C° 0.5 mm 6 mps 744 mmHg 88%
    09:00 +11°C° 0.5 mm 6 mps 743 mmHg 89%
    10:00 +13°C° 0.3 mm 6 mps 744 mmHg 83%
    11:00 +14°C° 0.3 mm 7 mps 744 mmHg 77%
    12:00 +15°C° 0.3 mm 7 mps 744 mmHg 71%
    13:00 +15°C° 0.1 mm 7 mps 744 mmHg 73%
    14:00 +14°C° 0.1 mm 6 mps 743 mmHg 74%
    15:00 +14°C° 0.1 mm 6 mps 743 mmHg 75%
    16:00 +13°C° 0.7 mm 5 mps 743 mmHg 79%
    17:00 +13°C° 0.7 mm 4 mps 743 mmHg 83%
    18:00 +12°C° 0.7 mm 3 mps 743 mmHg 88%
    19:00 +12°C° 0.3 mm 3 mps 744 mmHg 87%
    20:00 +12°C° 0.3 mm 3 mps 744 mmHg 87%
    21:00 +12°C° 0.3 mm 3 mps 745 mmHg 87%
    22:00 +12°C° 0.1 mm 3 mps 745 mmHg 87%
    23:00 +11°C° 0.1 mm 4 mps 745 mmHg 86%

    Day after tomorrow, 6 June, Saturday

    Time Temperature Precipitation Wind Pressure Humidity
    00:00 +11°C° 0.1 mm 4 mps 745 mmHg 85%
    01:00 +11°C° 0 mm 4 mps 745 mmHg 85%
    02:00 +10°C° 0 mm 3 mps 745 mmHg 85%
    03:00 +9°C° 0 mm 3 mps 746 mmHg 85%
    04:00 +10°C° 0 mm 3 mps 746 mmHg 83%
    05:00 +10°C° 0 mm 4 mps 746 mmHg 81%
    06:00 +11°C° 0 mm 4 mps 746 mmHg 79%
    07:00 +12°C° 0.1 mm 5 mps 746 mmHg 72%
    08:00 +13°C° 0.1 mm 5 mps 746 mmHg 65%
    09:00 +14°C° 0.1 mm 6 mps 747 mmHg 59%
    10:00 +15°C° 0 mm 6 mps 747 mmHg 55%
    11:00 +15°C° 0 mm 6 mps 747 mmHg 52%
    12:00 +16°C° 0 mm 6 mps 747 mmHg 49%
    13:00 +16°C° 0 mm 6 mps 747 mmHg 50%
    14:00 +16°C° 0 mm 6 mps 747 mmHg 50%
    15:00 +16°C° 0 mm 6 mps 747 mmHg 51%
    16:00 +15°C° 0 mm 6 mps 747 mmHg 52%
    17:00 +15°C° 0 mm 5 mps 747 mmHg 54%
    18:00 +14°C° 0 mm 5 mps 747 mmHg 56%
    19:00 +13°C° 0 mm 4 mps 748 mmHg 58%
    20:00 +11°C° 0 mm 4 mps 748 mmHg 60%
    21:00 +10°C° 0 mm 4 mps 749 mmHg 61%
    22:00 +10°C° 0 mm 4 mps 749 mmHg 65%
    23:00 +8°C° 0 mm 4 mps 749 mmHg 68%

    7 June, Sunday

    Time Temperature Precipitation Wind Pressure Humidity
    00:00 +7°C° 0 mm 4 mps 749 mmHg 72%
    01:00 +7°C° 0 mm 4 mps 749 mmHg 75%
    02:00 +7°C° 0 mm 4 mps 749 mmHg 77%
    03:00 +7°C° 0 mm 4 mps 750 mmHg 80%
    04:00 +7°C° 0 mm 4 mps 750 mmHg 78%
    05:00 +8°C° 0 mm 4 mps 750 mmHg 77%
    06:00 +10°C° 0 mm 4 mps 750 mmHg 76%
    07:00 +11°C° 0 mm 4 mps 750 mmHg 71%
    08:00 +13°C° 0 mm 4 mps 751 mmHg 67%
    09:00 +15°C° 0 mm 4 mps 751 mmHg 63%
    10:00 +17°C° 0.1 mm 4 mps 751 mmHg 59%
    11:00 +18°C° 0.1 mm 4 mps 751 mmHg 55%
    12:00 +19°C° 0.1 mm 4 mps 751 mmHg 52%
    13:00 +19°C° 0.3 mm 4 mps 751 mmHg 54%
    14:00 +19°C° 0.3 mm 4 mps 752 mmHg 57%
    15:00 +19°C° 0.3 mm 4 mps 752 mmHg 59%
    16:00 +19°C° 0.3 mm 4 mps 752 mmHg 63%
    17:00 +18°C° 0.3 mm 3 mps 752 mmHg 66%
    18:00 +18°C° 0.3 mm 2 mps 752 mmHg 69%
    19:00 +16°C° 0.1 mm 2 mps 752 mmHg 72%
    20:00 +15°C° 0.1 mm 2 mps 753 mmHg 75%
    21:00 +14°C° 0.1 mm 1 mps 753 mmHg 78%
    22:00 +14°C° 0 mm 1 mps 753 mmHg 79%
    23:00 +13°C° 0 mm 1 mps 753 mmHg 80%

    8 June, Monday

    Time Temperature Precipitation Wind Pressure Humidity
    00:00 +13°C° 0 mm 1 mps 753 mmHg 82%
    01:00 +12°C° 0 mm 1 mps 754 mmHg 83%
    02:00 +12°C° 0 mm 1 mps 754 mmHg 84%
    03:00 +11°C° 0 mm 1 mps 754 mmHg 85%
    04:00 +12°C° 0 mm 1 mps 754 mmHg 84%
    05:00 +13°C° 0 mm 1 mps 754 mmHg 82%
    06:00 +14°C° 0 mm 1 mps 754 mmHg 80%
    07:00 +15°C° 0 mm 1 mps 755 mmHg 73%
    08:00 +18°C° 0 mm 1 mps 755 mmHg 66%
    09:00 +19°C° 0 mm 1 mps 755 mmHg 59%
    10:00 +20°C° 0.1 mm 1 mps 755 mmHg 55%
    11:00 +20°C° 0.1 mm 2 mps 755 mmHg 51%
    12:00 +21°C° 0.1 mm 2 mps 755 mmHg 47%
    13:00 +21°C° 0.1 mm 2 mps 755 mmHg 48%
    14:00 +23°C° 0.1 mm 2 mps 755 mmHg 48%
    15:00 +23°C° 0.1 mm 2 mps 755 mmHg 49%
    16:00 +21°C° 0.3 mm 3 mps 755 mmHg 56%
    17:00 +20°C° 0.3 mm 3 mps 755 mmHg 63%
    18:00 +19°C° 0.3 mm 4 mps 755 mmHg 70%
    19:00 +17°C° 0.1 mm 4 mps 756 mmHg 74%
    20:00 +15°C° 0.1 mm 4 mps 756 mmHg 79%
    21:00 +14°C° 0.1 mm 4 mps 757 mmHg 83%
    22:00 +13°C° 0 mm 4 mps 757 mmHg 82%
    23:00 +12°C° 0 mm 4 mps 757 mmHg 82%

    9 June, Tuesday

    Time Temperature Precipitation Wind Pressure Humidity
    00:00 +11°C° 0 mm 4 mps 758 mmHg 82%
    01:00 +11°C° 0 mm 4 mps 758 mmHg 83%
    02:00 +10°C° 0 mm 4 mps 758 mmHg 84%
    03:00 +9°C° 0 mm 3 mps 758 mmHg 85%
    04:00 +10°C° 0 mm 3 mps 758 mmHg 83%
    05:00 +10°C° 0 mm 4 mps 759 mmHg 81%
    06:00 +10°C° 0 mm 4 mps 759 mmHg 79%
    07:00 +12°C° 0 mm 4 mps 759 mmHg 72%
    08:00 +13°C° 0 mm 4 mps 759 mmHg 66%
    09:00 +14°C° 0 mm 4 mps 759 mmHg 59%
    10:00 +15°C° 0 mm 4 mps 759 mmHg 55%
    11:00 +17°C° 0 mm 3 mps 759 mmHg 52%
    12:00 +18°C° 0 mm 3 mps 759 mmHg 48%
    13:00 +18°C° 0 mm 4 mps 759 mmHg 49%
    14:00 +18°C° 0 mm 4 mps 759 mmHg 49%
    15:00 +18°C° 0 mm 4 mps 759 mmHg 50%
    16:00 +17°C° 0 mm 4 mps 759 mmHg 53%
    17:00 +17°C° 0 mm 3 mps 759 mmHg 56%
    18:00 +16°C° 0 mm 3 mps 759 mmHg 58%
    19:00 +14°C° 0 mm 3 mps 759 mmHg 63%
    20:00 +13°C° 0 mm 2 mps 759 mmHg 67%
    21:00 +12°C° 0 mm 2 mps 760 mmHg 71%
    22:00 +12°C° 0 mm 2 mps 760 mmHg 73%
    23:00 +10°C° 0 mm 2 mps 759 mmHg 75%
    Show more